When you browse on this site, cookies collect data to enhance your experience and personalize the content and advertising you see.
Visit our Privacy Policy to learn more. By continuing to use the site, you agree to this use of cookies and data.
  • en France
  • Liste des pays
  • À 7 jours
  • Température de l'eau
  • Carte météo
  • Widgets météo
  • user-avatar
    Se connecter

    Météo par heure à San Juan

    Ce jour, 2 Avril, Jeudi

    Heure Température Précipitation Vent Pression Humidité
    00:00 +18°C° 0 mm 4 m/s 713 mmHg 65%
    01:00 +18°C° 0 mm 3 m/s 713 mmHg 64%
    02:00 +18°C° 0 mm 3 m/s 713 mmHg 64%
    03:00 +17°C° 0 mm 3 m/s 713 mmHg 64%
    04:00 +17°C° 0 mm 3 m/s 713 mmHg 64%
    05:00 +17°C° 0 mm 2 m/s 713 mmHg 61%
    06:00 +18°C° 0 mm 2 m/s 714 mmHg 58%
    07:00 +20°C° 0 mm 1 m/s 714 mmHg 55%
    08:00 +21°C° 0 mm 1 m/s 714 mmHg 48%
    09:00 +21°C° 0 mm 2 m/s 713 mmHg 42%
    10:00 +23°C° 0 mm 2 m/s 713 mmHg 36%
    11:00 +24°C° 0 mm 2 m/s 713 mmHg 34%
    12:00 +25°C° 0 mm 2 m/s 712 mmHg 33%
    13:00 +26°C° 0 mm 2 m/s 711 mmHg 31%
    14:00 +26°C° 0 mm 2 m/s 711 mmHg 31%
    15:00 +26°C° 0 mm 2 m/s 710 mmHg 31%
    16:00 +26°C° 0 mm 2 m/s 709 mmHg 31%
    17:00 +25°C° 0 mm 2 m/s 710 mmHg 31%
    18:00 +24°C° 0 mm 2 m/s 710 mmHg 32%
    19:00 +23°C° 0 mm 2 m/s 710 mmHg 33%
    20:00 +23°C° 0 mm 2 m/s 710 mmHg 34%
    21:00 +21°C° 0 mm 2 m/s 710 mmHg 34%
    22:00 +22°C° 0 mm 1 m/s 709 mmHg 35%
    23:00 +21°C° 0 mm 1 m/s 709 mmHg 37%

    Demain, 3 Avril, Vendredi

    Heure Température Précipitation Vent Pression Humidité
    00:00 +21°C° 0 mm 1 m/s 709 mmHg 38%
    01:00 +18°C° 0 mm 0 m/s 708 mmHg 40%
    02:00 +18°C° 0 mm 0 m/s 708 mmHg 41%
    03:00 +17°C° 0 mm 0 m/s 707 mmHg 42%
    04:00 +17°C° 0 mm 0 m/s 706 mmHg 43%
    05:00 +20°C° 0 mm 1 m/s 706 mmHg 40%
    06:00 +21°C° 0 mm 1 m/s 706 mmHg 38%
    07:00 +22°C° 0 mm 1 m/s 707 mmHg 35%
    08:00 +23°C° 0 mm 2 m/s 706 mmHg 32%
    09:00 +25°C° 0 mm 2 m/s 706 mmHg 29%
    10:00 +26°C° 0 mm 3 m/s 706 mmHg 27%
    11:00 +28°C° 0 mm 3 m/s 705 mmHg 26%
    12:00 +29°C° 0 mm 3 m/s 704 mmHg 25%
    13:00 +30°C° 0 mm 4 m/s 703 mmHg 24%
    14:00 +30°C° 0 mm 3 m/s 703 mmHg 24%
    15:00 +31°C° 0 mm 3 m/s 702 mmHg 24%
    16:00 +31°C° 0 mm 3 m/s 702 mmHg 24%
    17:00 +29°C° 0 mm 3 m/s 702 mmHg 28%
    18:00 +28°C° 0 mm 2 m/s 702 mmHg 33%
    19:00 +26°C° 0 mm 2 m/s 702 mmHg 37%
    20:00 +25°C° 0 mm 2 m/s 702 mmHg 41%
    21:00 +24°C° 0 mm 1 m/s 702 mmHg 44%
    22:00 +24°C° 0 mm 1 m/s 702 mmHg 47%
    23:00 +23°C° 0 mm 1 m/s 702 mmHg 48%

    Après-demain, 4 Avril, Samedi

    Heure Température Précipitation Vent Pression Humidité
    00:00 +23°C° 0 mm 1 m/s 702 mmHg 49%
    01:00 +22°C° 0 mm 1 m/s 702 mmHg 51%
    02:00 +22°C° 0 mm 1 m/s 702 mmHg 51%
    03:00 +21°C° 0 mm 2 m/s 701 mmHg 51%
    04:00 +20°C° 0 mm 2 m/s 701 mmHg 52%
    05:00 +20°C° 0 mm 3 m/s 702 mmHg 51%
    06:00 +21°C° 0 mm 4 m/s 702 mmHg 50%
    07:00 +21°C° 0 mm 5 m/s 703 mmHg 49%
    08:00 +22°C° 0 mm 6 m/s 703 mmHg 45%
    09:00 +23°C° 0 mm 7 m/s 703 mmHg 40%
    10:00 +26°C° 0 mm 8 m/s 704 mmHg 35%
    11:00 +26°C° 0 mm 8 m/s 703 mmHg 34%
    12:00 +27°C° 0 mm 7 m/s 703 mmHg 33%
    13:00 +28°C° 0 mm 7 m/s 702 mmHg 32%
    14:00 +27°C° 0 mm 6 m/s 702 mmHg 32%
    15:00 +27°C° 0 mm 5 m/s 701 mmHg 32%
    16:00 +27°C° 0 mm 4 m/s 701 mmHg 33%
    17:00 +26°C° 0 mm 3 m/s 701 mmHg 38%
    18:00 +25°C° 0 mm 2 m/s 701 mmHg 42%
    19:00 +23°C° 0 mm 1 m/s 701 mmHg 47%
    20:00 +23°C° 0 mm 1 m/s 701 mmHg 49%
    21:00 +22°C° 0 mm 1 m/s 701 mmHg 50%
    22:00 +20°C° 0 mm 0 m/s 701 mmHg 52%
    23:00 +19°C° 0 mm 0 m/s 701 mmHg 52%

    5 Avril, Dimanche

    Heure Température Précipitation Vent Pression Humidité
    00:00 +19°C° 0 mm 0 m/s 701 mmHg 53%
    01:00 +19°C° 0 mm 0 m/s 701 mmHg 54%
    02:00 +20°C° 0 mm 1 m/s 700 mmHg 54%
    03:00 +20°C° 0 mm 1 m/s 700 mmHg 55%
    04:00 +20°C° 0 mm 1 m/s 700 mmHg 55%
    05:00 +20°C° 0 mm 2 m/s 700 mmHg 54%
    06:00 +20°C° 0 mm 3 m/s 701 mmHg 52%
    07:00 +21°C° 0 mm 3 m/s 701 mmHg 51%
    08:00 +22°C° 0 mm 3 m/s 702 mmHg 49%
    09:00 +25°C° 0 mm 4 m/s 702 mmHg 46%
    10:00 +26°C° 0 mm 4 m/s 702 mmHg 43%
    11:00 +27°C° 0 mm 4 m/s 702 mmHg 40%
    12:00 +28°C° 0 mm 5 m/s 702 mmHg 38%
    13:00 +29°C° 0 mm 5 m/s 702 mmHg 35%
    14:00 +29°C° 0 mm 5 m/s 702 mmHg 35%
    15:00 +29°C° 0 mm 6 m/s 702 mmHg 34%
    16:00 +29°C° 0 mm 6 m/s 702 mmHg 34%
    17:00 +28°C° 0 mm 6 m/s 703 mmHg 36%
    18:00 +27°C° 0 mm 5 m/s 704 mmHg 39%
    19:00 +26°C° 0 mm 5 m/s 705 mmHg 42%
    20:00 +26°C° 0 mm 5 m/s 705 mmHg 43%
    21:00 +25°C° 0 mm 4 m/s 706 mmHg 44%
    22:00 +25°C° 0 mm 4 m/s 707 mmHg 45%
    23:00 +23°C° 0 mm 5 m/s 708 mmHg 46%

    6 Avril, Lundi

    Heure Température Précipitation Vent Pression Humidité
    00:00 +23°C° 0 mm 5 m/s 708 mmHg 47%
    01:00 +22°C° 0 mm 6 m/s 708 mmHg 47%
    02:00 +22°C° 0 mm 6 m/s 709 mmHg 45%
    03:00 +21°C° 0 mm 6 m/s 709 mmHg 43%
    04:00 +20°C° 0 mm 7 m/s 709 mmHg 40%
    05:00 +20°C° 0 mm 7 m/s 710 mmHg 39%
    06:00 +20°C° 0 mm 7 m/s 710 mmHg 38%
    07:00 +20°C° 0 mm 6 m/s 710 mmHg 36%
    08:00 +20°C° 0 mm 6 m/s 710 mmHg 31%
    09:00 +21°C° 0 mm 6 m/s 711 mmHg 25%
    10:00 +22°C° 0 mm 5 m/s 711 mmHg 20%
    11:00 +22°C° 0 mm 5 m/s 710 mmHg 20%
    12:00 +23°C° 0 mm 5 m/s 709 mmHg 21%
    13:00 +23°C° 0 mm 4 m/s 709 mmHg 21%
    14:00 +23°C° 0 mm 4 m/s 708 mmHg 22%
    15:00 +23°C° 0 mm 4 m/s 708 mmHg 23%
    16:00 +23°C° 0 mm 4 m/s 708 mmHg 24%
    17:00 +22°C° 0 mm 3 m/s 708 mmHg 25%
    18:00 +22°C° 0 mm 3 m/s 708 mmHg 26%
    19:00 +21°C° 0 mm 2 m/s 709 mmHg 27%
    20:00 +21°C° 0 mm 2 m/s 709 mmHg 28%
    21:00 +21°C° 0 mm 2 m/s 709 mmHg 29%
    22:00 +21°C° 0 mm 1 m/s 709 mmHg 29%
    23:00 +21°C° 0 mm 1 m/s 709 mmHg 30%

    7 Avril, Mardi

    Heure Température Précipitation Vent Pression Humidité
    00:00 +20°C° 0 mm 2 m/s 709 mmHg 30%
    01:00 +20°C° 0 mm 2 m/s 709 mmHg 31%
    02:00 +19°C° 0 mm 2 m/s 709 mmHg 33%
    03:00 +18°C° 0 mm 2 m/s 708 mmHg 35%
    04:00 +18°C° 0 mm 2 m/s 708 mmHg 38%
    05:00 +18°C° 0 mm 2 m/s 708 mmHg 38%
    06:00 +18°C° 0 mm 2 m/s 708 mmHg 38%
    07:00 +18°C° 0 mm 2 m/s 708 mmHg 38%
    08:00 +19°C° 0 mm 2 m/s 708 mmHg 36%
    09:00 +21°C° 0 mm 2 m/s 708 mmHg 34%
    10:00 +23°C° 0 mm 2 m/s 708 mmHg 32%
    11:00 +24°C° 0 mm 2 m/s 707 mmHg 32%
    12:00 +25°C° 0 mm 2 m/s 707 mmHg 31%
    13:00 +26°C° 0 mm 2 m/s 706 mmHg 31%
    14:00 +26°C° 0 mm 2 m/s 706 mmHg 31%
    15:00 +27°C° 0 mm 2 m/s 706 mmHg 31%
    16:00 +27°C° 0 mm 2 m/s 706 mmHg 31%
    17:00 +26°C° 0 mm 2 m/s 706 mmHg 34%
    18:00 +25°C° 0 mm 2 m/s 706 mmHg 36%
    19:00 +24°C° 0 mm 1 m/s 706 mmHg 39%
    20:00 +23°C° 0 mm 1 m/s 707 mmHg 41%
    21:00 +23°C° 0 mm 1 m/s 707 mmHg 43%
    22:00 +21°C° 0 mm 2 m/s 707 mmHg 45%
    23:00 +21°C° 0 mm 2 m/s 707 mmHg 47%
    Voir plus